Wan Hai 273 — 9V7586 — position and weather

sailwx.info

Track history (hours):
 
Tides and Currents Weather Stations Pressure Air Temp Water Temp Dewpoint Dewpoint Depression Visibility Wind Speed Wind Dir Waves Ship Positions

Wan Hai 273

Last reported at 2014-Oct-24 23:33 UTC. Time now 2014-Oct-25 03:41 UTC.
Position N 22°19' E 114°06'.

Length 172 m; draft 5.7 m.

Type: Cargo ship. MMSI: 566406000.

Date/timePositionNaut miles runAvg speedWind from/ knotsBaromVisibWave heightAir tempDewpointWater temp
2014-Oct-24 23:33N 22°19' E 114°06'4 0.3
2014-Oct-24 08:31N 22°15' E 114°05'0 0.0
2014-Oct-24 06:31N 22°15' E 114°05'0 0.0
2014-Oct-24 05:31N 22°15' E 114°05'0 0.0
2014-Oct-24 04:07N 22°15' E 114°05'0 0.0
2014-Oct-24 03:31N 22°15' E 114°05'0 0.0
2014-Oct-23 21:13N 22°15' E 114°05'0 0.0
2014-Oct-23 20:25N 22°15' E 114°05'0 0.0
2014-Oct-23 06:19N 22°15' E 114°05'0 0.0
2014-Oct-23 05:07N 22°15' E 114°05'0 0.0
2014-Oct-23 04:31N 22°15' E 114°05'0 0.0
2014-Oct-23 02:07N 22°15' E 114°05'0 0.0
2014-Oct-23 01:07N 22°15' E 114°05'0 0.0
2014-Oct-22 08:19N 22°15' E 114°05'0 0.1
2014-Oct-22 07:07N 22°15' E 114°06'0 0.0
2014-Oct-22 06:31N 22°15' E 114°06'0 0.0
2014-Oct-22 05:31N 22°15' E 114°06'0 0.0
2014-Oct-22 04:25N 22°15' E 114°06'0 0.0
2014-Oct-22 03:31N 22°15' E 114°06'0 0.0
2014-Oct-22 01:13N 22°15' E 114°06'0 0.1
2014-Oct-22 00:25N 22°15' E 114°06'0 0.1
2014-Oct-21 22:13N 22°15' E 114°05'0 0.0
2014-Oct-21 07:13N 22°15' E 114°06'0 0.1
2014-Oct-21 06:19N 22°15' E 114°06'0 0.0
2014-Oct-21 05:31N 22°15' E 114°06'0 0.0
2014-Oct-21 03:31N 22°15' E 114°06'0 0.0
2014-Oct-21 02:13N 22°15' E 114°06'0 0.0
2014-Oct-21 01:25N 22°15' E 114°06'0 0.0
2014-Oct-21 00:31N 22°15' E 114°06'0 0.0
2014-Oct-20 04:13N 22°15' E 114°05'0 0.0
2014-Oct-20 03:31N 22°15' E 114°05'0 0.0
2014-Oct-20 02:13N 22°15' E 114°05'0 0.0
2014-Oct-19 15:31N 22°15' E 114°06'15 2.0
2014-Oct-19 08:17N 22°12' E 114°21'1 1.3
2014-Oct-19 07:21N 22°12' E 114°20'5 5.5
2014-Oct-19 06:29N 22°11' E 114°25'19 3.5
2014-Oct-19 01:05N 22°17' E 114°06'3 0.1
2014-Oct-18 05:09N 22°20' E 114°05'0 0.0
2014-Oct-16 07:16N 22°20' E 114°05'  
Track history (hours):
 
Tides and Currents Weather Stations Pressure Air Temp Water Temp Dewpoint Dewpoint Depression Visibility Wind Speed Wind Dir Waves Ship Positions

Wan Hai 273

Last reported at 2014-Oct-24 23:33 UTC. Time now 2014-Oct-25 03:41 UTC.
Position N 22°19' E 114°06'.

Length 172 m; draft 5.7 m.

Type: Cargo ship. MMSI: 566406000.

Date/timePositionNaut miles runAvg speedWind from/ knotsBaromVisibWave heightAir tempDewpointWater temp
2014-Oct-24 23:33N 22°19' E 114°06'4 0.3
2014-Oct-24 08:31N 22°15' E 114°05'0 0.0
2014-Oct-24 06:31N 22°15' E 114°05'0 0.0
2014-Oct-24 05:31N 22°15' E 114°05'0 0.0
2014-Oct-24 04:07N 22°15' E 114°05'0 0.0
2014-Oct-24 03:31N 22°15' E 114°05'0 0.0
2014-Oct-23 21:13N 22°15' E 114°05'0 0.0
2014-Oct-23 20:25N 22°15' E 114°05'0 0.0
2014-Oct-23 06:19N 22°15' E 114°05'0 0.0
2014-Oct-23 05:07N 22°15' E 114°05'0 0.0
2014-Oct-23 04:31N 22°15' E 114°05'0 0.0
2014-Oct-23 02:07N 22°15' E 114°05'0 0.0
2014-Oct-23 01:07N 22°15' E 114°05'0 0.0
2014-Oct-22 08:19N 22°15' E 114°05'0 0.1
2014-Oct-22 07:07N 22°15' E 114°06'0 0.0
2014-Oct-22 06:31N 22°15' E 114°06'0 0.0
2014-Oct-22 05:31N 22°15' E 114°06'0 0.0
2014-Oct-22 04:25N 22°15' E 114°06'0 0.0
2014-Oct-22 03:31N 22°15' E 114°06'0 0.0
2014-Oct-22 01:13N 22°15' E 114°06'0 0.1
2014-Oct-22 00:25N 22°15' E 114°06'0 0.1
2014-Oct-21 22:13N 22°15' E 114°05'0 0.0
2014-Oct-21 07:13N 22°15' E 114°06'0 0.1
2014-Oct-21 06:19N 22°15' E 114°06'0 0.0
2014-Oct-21 05:31N 22°15' E 114°06'0 0.0
2014-Oct-21 03:31N 22°15' E 114°06'0 0.0
2014-Oct-21 02:13N 22°15' E 114°06'0 0.0
2014-Oct-21 01:25N 22°15' E 114°06'0 0.0
2014-Oct-21 00:31N 22°15' E 114°06'0 0.0
2014-Oct-20 04:13N 22°15' E 114°05'0 0.0
2014-Oct-20 03:31N 22°15' E 114°05'0 0.0
2014-Oct-20 02:13N 22°15' E 114°05'0 0.0
2014-Oct-19 15:31N 22°15' E 114°06'15 2.0
2014-Oct-19 08:17N 22°12' E 114°21'1 1.3
2014-Oct-19 07:21N 22°12' E 114°20'5 5.5
2014-Oct-19 06:29N 22°11' E 114°25'19 3.5
2014-Oct-19 01:05N 22°17' E 114°06'3 0.1
2014-Oct-18 05:09N 22°20' E 114°05'0 0.0
2014-Oct-16 07:16N 22°20' E 114°05'  

Dump ship's entire track history